{"data":{"norad_id":55280,"intl_designator":"2023-010M","name":"STARLINK-5331","alt_names":[],"object_type":"PAYLOAD","status":"ACTIVE","operator":null,"country":"US","launch_date":"2023-01-19","launch_site_code":"AFWTR","launch_vehicle":null,"mission":null,"orbit_class":"UNKNOWN","rcs_meters":null,"size_class":null,"mass_kg":null,"dimensions":null,"purposes":["comms"],"wikipedia_slug":null,"has_3d_model":false,"image_url":null,"decayed_at":null,"tle_current":{"epoch":"2026-09-20T22:00:03.000096Z","epoch_age_seconds":56749,"freshness":"FRESH","line1":"1 55280U 23010M   26263.91670139  .00113930  00000+0  75014-2 0  9996","line2":"2 55280  70.0000 272.2808 0002648 251.5397 243.7489 15.06886961  5675","mean_motion":15.06886961,"eccentricity":0.0002648,"inclination_deg":70,"raan_deg":272.2808,"arg_perigee_deg":251.5397,"mean_anomaly_deg":243.7489,"bstar":0.0075014,"rev_number":567,"period_min":95.561248936973,"perigee_km":543.88605734032,"apogee_km":547.55293173983,"semimajor_km":6923.8564945401,"source":"CELESTRAK","updated_at":"2026-09-21T09:00:33.166346Z"}}}